Temp_Advection
nan nan nan nan nan nan nan nan nan nan nan nan nan nan nan nan nan nan nan nan nan nan nan nan nan nan nan nan nan nan nan nan nan nan nan nan nan nan nan nan nan nan nan nan nan nan nan nan nan
nan 0 0 -0 -0 0 -0 -0 -0 -0 -0 -0 -0 0 0 0 -0 -0 0 -0 0 -0 -0 -0 -0 -0 -0 -0 0 0 0 0 0 0 0 0 0 0 -0 0 0 0 0 0 0 0 0 0 nan
nan 0 -0 -0 -0 -0 -0 -0 -0 -0 -0 -0 -0 -0 0 0 -0 -0 0 0 0 0 0 0 0 -0 -0 -0 -0 0 0 0 0 0 0 0 0 0 0 0 0 0 0 0 0 0 0 0 nan
nan 0 -0 -0 -0 -0 -0 -0 0 -0 -0 -0 -0 -0 -0 0 0 0 -0 0 0 0 0 0 0 0 0 0 0 0 0 0 0 0 0 0 0 0 0 0 0 -0 1 0 0 0 0 0 nan
nan -0 -0 0 -0 -0 -0 -0 0 0 -0 -1 -0 -0 -0 -0 0 -0 0 0 0 0 0 0 1 1 0 0 0 0 0 0 0 0 0 0 0 0 0 0 1 1 0 0 0 0 0 0 nan
nan -0 -0 -0 -0 -0 -0 -0 -0 -0 -0 -0 -0 -1 -0 -1 -0 0 0 0 0 0 0 1 0 0 0 0 0 0 0 0 0 0 0 0 0 0 -0 0 1 1 0 -0 0 0 0 0 nan
nan -0 -0 -0 -0 -0 -0 0 -0 -0 -0 -0 -0 -0 -1 -1 -1 -0 -0 0 0 0 0 0 -0 0 1 0 0 0 0 0 0 0 0 0 0 0 0 0 1 -0 -1 -0 1 0 0 0 nan
nan -0 0 -0 -0 -0 -0 -0 -0 -0 -0 -1 -0 -0 -0 -1 -1 -0 0 0 0 0 -0 -0 -0 -0 -0 0 0 0 0 0 0 0 0 0 0 0 0 1 0 -1 -0 -0 -0 0 0 0 nan
nan -0 0 -0 -0 -0 -0 -0 -0 -0 -0 -1 -0 0 0 0 -1 -1 -1 -0 0 -0 -0 -0 -0 -0 0 -0 -0 0 -0 -0 0 0 0 0 0 0 0 0 -1 -1 1 0 -0 0 0 0 nan
nan -0 -0 -0 -0 -0 -0 -0 -0 -0 -0 -0 -0 -1 -0 -0 0 0 -1 -0 0 -0 0 0 0 0 0 0 0 -0 0 0 0 0 0 0 0 0 0 0 -1 1 1 1 0 -0 -0 -0 nan
nan -0 -0 -0 -0 0 0 -0 -0 0 -0 -0 -0 -1 -1 -1 -0 0 -0 -0 -0 0 0 0 0 0 0 0 0 0 0 -0 -0 -0 0 -0 -0 0 0 0 0 1 0 0 -0 -0 -0 0 nan
nan -0 -0 -0 -0 -0 -0 -0 -0 -0 -0 -1 -0 -0 -1 -1 -1 -0 -0 -0 -0 -0 0 0 0 0 0 0 0 -0 -0 -0 -0 -0 0 1 1 0 0 -0 0 0 -0 -1 -1 -0 0 0 nan
nan -0 -0 -0 -0 -0 -0 0 -0 -1 -1 -1 -0 -0 -1 -1 -1 -1 -0 -0 -0 -1 -0 0 0 -0 0 -0 -0 -0 -0 -0 0 -0 -0 1 1 0 -0 -0 0 0 -1 -1 -0 -0 -0 0 nan
nan -0 -0 -0 -0 0 -0 -1 -0 -0 -1 -1 0 0 -0 -1 -1 -1 -1 -0 -0 -0 0 -0 -0 0 0 0 0 -0 -1 0 1 -0 -1 -0 1 1 0 0 1 -0 -1 1 -0 0 0 0 nan
nan -0 -0 -0 0 -0 0 0 -0 -2 -0 -0 -1 -0 -0 -1 -1 -2 -1 -0 -0 -0 -0 -0 -0 0 0 0 0 -0 -0 0 0 1 2 -1 -1 1 2 1 1 0 1 0 0 0 0 0 nan
nan -0 -0 -0 -0 0 0 -0 -1 -1 0 -0 -0 -0 -0 -0 -1 -2 -1 -0 -1 -0 -0 -0 -0 0 0 0 0 0 -0 0 1 1 1 -2 -2 1 1 1 1 1 1 -0 0 -1 0 -0 nan
nan -0 -0 -1 -0 0 0 -0 -0 -1 0 0 -0 -1 -0 -0 -1 -1 -1 -1 -1 -0 -0 0 0 0 1 1 0 0 0 1 1 1 0 -2 -1 -0 1 2 2 0 -1 -1 -0 -0 -0 0 nan
nan -0 -0 -0 -0 -0 0 -1 -1 -0 0 0 -0 -1 -1 -1 -1 -1 -1 -1 -0 0 1 0 -0 0 1 1 1 -0 -1 0 1 0 0 0 -1 0 2 1 1 -0 -1 -0 -1 -0 0 1 nan
nan -0 -0 -1 -0 0 -0 -0 -1 -0 0 0 -1 -1 -1 -1 -1 -0 -1 -0 0 0 0 0 0 0 1 1 -0 -1 -0 1 1 1 0 -0 0 1 0 -0 0 -1 -1 -0 -1 0 1 0 nan
nan -0 -1 -1 -0 0 0 -0 -0 0 -0 -0 -0 -0 -0 -0 -0 -0 0 0 0 0 0 0 0 0 1 0 -0 -0 -0 -0 -0 0 0 0 0 0 -0 -0 -0 -0 -0 -0 0 0 -0 0 nan
nan -1 -0 -0 -0 0 -0 -0 -0 -0 0 -0 -0 -0 -0 -0 0 1 1 1 0 0 0 0 -0 0 1 0 -0 0 0 -1 -1 0 0 0 1 0 -0 -0 0 -0 0 0 0 -0 -0 0 nan
nan -0 0 0 0 -0 -0 0 -0 -0 -0 -0 -0 -0 0 -0 0 -0 0 0 0 0 0 0 -0 0 -0 -0 0 0 -0 -1 -1 1 1 1 1 0 0 0 -0 0 0 -0 -0 -0 -0 -0 nan
nan -0 0 -0 0 0 0 0 -0 0 -0 0 0 -0 -0 -0 -0 -0 -0 -0 -0 -0 0 -0 0 -0 -1 -0 1 0 -0 -1 -0 -0 0 1 -0 0 0 -0 -0 0 -0 -1 -1 -0 0 1 nan
nan -0 0 0 0 0 0 -0 -0 0 0 0 -0 -0 -0 -0 -0 -0 0 0 0 0 0 0 0 0 0 0 0 -0 -0 0 0 -0 0 0 0 0 0 0 -0 -0 -0 1 1 1 1 1 nan
nan 0 -0 -0 -0 0 -0 -0 -0 -0 -0 -0 -0 -0 -0 -0 -0 0 0 0 0 0 0 0 0 0 -0 0 0 -0 -0 -0 -0 -0 0 0 0 0 0 -0 -0 0 1 1 1 0 1 0 nan
nan -0 -0 0 0 0 -0 0 0 -0 -0 -0 -0 -0 -0 -0 -0 0 0 0 0 0 0 0 0 -0 0 0 -0 0 -0 -0 -0 -0 -0 -0 -0 -0 -0 0 0 0 -0 -0 0 0 0 -0 nan
nan 0 -0 -0 0 -0 -0 0 0 -0 -0 -0 -0 -0 -0 0 -0 -0 1 1 -0 0 0 -0 0 -0 -0 -0 -0 -0 -0 0 -0 0 -0 -0 0 0 0 0 -0 -0 -0 0 -0 0 0 -0 nan
nan -0 -0 -0 -0 0 0 0 0 0 -0 -0 -0 -0 0 0 -0 -0 0 0 0 -0 -0 0 0 0 0 0 0 0 0 -0 0 -0 -0 -0 -0 -0 0 0 -0 -0 0 0 0 -0 -0 0 nan
nan 0 -0 -0 -0 -0 0 0 -0 0 -0 -0 -0 -0 0 -0 -0 0 1 0 0 0 0 0 0 0 0 0 -0 0 0 -0 0 -0 -0 -0 0 -0 -0 -0 -0 0 0 -0 -0 0 0 0 nan
nan nan nan nan nan nan nan nan nan nan nan nan nan nan nan nan nan nan nan nan nan nan nan nan nan nan nan nan nan nan nan nan nan nan nan nan nan nan nan nan nan nan nan nan nan nan nan nan nan
Wind_Speed
6 9 10 6 4 4 3 6 1 2 1 6 10 6 6 8 4 4 3 12 6 7 17 22 23 21 19 18 18 17 17 15 14 13 13 13 12 12 14 12 14 15 16 14 10 12 13 14 14
10 9 8 4 4 3 5 4 4 4 6 19 13 9 2 5 7 6 9 10 8 12 16 21 23 22 21 19 17 16 15 15 14 14 12 12 13 14 15 13 16 17 17 14 11 13 14 15 15
12 11 5 4 3 5 5 4 6 8 16 12 6 10 5 4 4 4 8 8 11 13 14 19 21 21 19 18 17 15 15 14 14 13 13 13 13 14 16 15 18 19 17 14 14 14 15 16 15
9 6 4 3 6 5 5 3 2 6 8 11 10 7 8 8 3 6 10 8 11 12 13 18 20 19 18 17 16 15 14 14 14 14 15 15 15 15 17 16 20 22 19 16 18 16 17 16 13
10 5 3 2 4 4 5 8 10 5 4 11 10 7 9 9 8 9 12 12 13 15 15 17 19 19 18 17 15 14 14 14 15 16 17 17 17 17 17 16 19 21 20 17 20 18 17 15 12
5 3 2 3 4 4 5 7 7 3 4 14 12 15 6 12 11 13 12 11 15 16 19 18 19 20 18 17 15 14 13 14 15 17 19 19 20 20 17 17 17 20 23 19 21 19 18 16 13
5 3 3 2 3 3 4 1 2 3 6 4 13 5 10 24 20 11 12 10 13 15 20 23 23 24 25 24 21 18 16 16 15 17 20 21 21 21 19 21 20 23 22 22 20 20 18 17 14
5 3 2 3 3 4 3 7 5 5 3 13 11 3 6 28 16 14 14 13 13 15 18 18 21 22 23 24 22 20 19 17 14 16 19 21 22 22 20 24 23 21 23 22 20 21 19 17 15
6 2 3 4 5 3 6 7 5 6 11 12 1 6 12 19 19 14 15 17 18 19 18 20 20 21 22 22 22 19 18 16 12 12 15 17 22 23 23 26 26 21 24 23 22 20 20 18 16
4 3 6 4 1 2 10 9 15 7 14 12 10 12 16 15 17 18 17 18 17 20 20 20 19 21 20 18 20 17 17 16 14 8 14 17 21 25 27 28 27 23 23 24 24 22 20 19 17
2 4 4 4 9 14 7 14 12 7 7 7 15 19 21 19 16 17 19 19 17 17 19 19 19 18 18 16 16 21 17 15 13 5 6 16 22 26 30 30 30 27 29 27 25 23 22 20 19
2 4 4 4 10 10 7 11 11 20 19 23 20 22 25 23 20 17 16 22 21 18 15 14 15 16 16 16 16 17 19 21 22 22 14 15 24 29 33 34 33 31 32 30 27 25 23 21 19
1 3 9 13 15 18 19 16 16 22 29 32 29 24 25 27 25 21 19 19 22 20 19 20 19 19 20 22 24 26 28 28 28 27 29 26 19 29 36 39 39 34 34 33 31 27 24 22 21
6 7 13 9 20 19 15 23 13 8 25 37 40 35 28 28 28 26 20 16 17 20 20 20 19 20 21 23 23 21 24 28 31 40 37 34 33 26 39 43 44 37 36 35 33 29 26 23 22
8 7 7 9 12 6 14 14 9 27 25 27 28 30 30 28 29 28 25 20 17 23 25 23 21 21 23 23 21 22 23 27 26 34 36 36 40 31 37 36 42 38 36 37 33 30 26 25 23
5 3 4 6 4 5 7 15 15 23 23 26 27 35 36 26 23 28 29 26 23 23 21 21 18 20 20 20 23 24 22 26 25 26 34 39 41 44 36 39 39 36 37 39 34 31 29 27 26
4 4 4 7 3 5 6 10 7 20 22 26 32 33 27 26 26 25 26 27 22 21 22 22 21 21 23 23 25 25 23 24 28 27 31 43 46 42 41 40 35 32 34 37 34 33 31 28 27
4 3 4 6 4 5 13 22 24 24 19 23 28 29 28 27 26 19 21 22 20 20 23 20 19 20 23 24 26 28 28 26 28 31 32 40 41 46 43 39 36 32 37 38 38 35 31 30 27
2 3 10 12 14 11 14 19 21 21 12 18 26 21 25 27 14 15 18 14 10 15 16 17 19 19 22 25 29 31 30 29 27 30 28 35 45 38 42 37 36 31 35 38 38 34 32 30 26
8 13 16 13 7 3 11 16 19 19 10 8 12 16 16 12 8 10 12 12 10 12 15 18 20 20 22 24 26 27 28 27 29 28 30 30 30 34 37 35 32 36 38 38 37 35 33 31 27
9 13 16 11 9 12 11 9 5 3 2 10 16 11 14 7 5 8 11 13 12 12 13 17 20 23 24 23 24 24 26 28 30 29 34 36 36 31 31 35 34 33 36 38 37 34 34 33 30
12 7 12 14 5 3 1 4 3 4 3 6 15 20 19 13 12 9 5 3 4 9 11 14 15 19 24 25 23 24 29 32 32 34 37 41 37 33 29 24 30 31 33 34 34 35 36 33 31
7 5 10 14 5 3 4 2 5 4 5 7 9 16 17 13 7 6 4 2 2 2 3 5 7 11 13 17 19 21 24 35 33 29 23 38 33 33 27 30 32 33 35 36 35 36 35 36 35
8 10 13 3 3 2 3 4 4 4 5 6 9 14 14 12 8 4 6 3 3 6 5 5 4 1 6 6 10 4 7 8 24 16 17 33 35 32 32 27 26 31 33 32 32 30 31 29 28
5 3 3 1 1 4 1 2 3 7 8 5 7 11 13 12 10 7 10 13 11 13 14 10 14 10 11 10 9 12 5 9 11 5 2 12 16 17 28 32 27 32 32 28 24 25 27 26 25
4 2 2 4 1 2 1 2 2 6 8 6 7 9 14 15 13 12 16 15 15 18 18 17 14 12 13 12 9 7 11 4 4 5 9 9 3 7 9 11 12 14 16 23 27 27 28 25 29
1 3 2 4 2 1 3 1 2 4 7 8 9 11 12 12 11 14 15 13 14 15 15 15 12 13 14 13 11 11 6 3 5 4 4 4 2 5 11 14 15 16 17 22 25 30 33 33 33
3 4 2 2 3 2 2 3 3 3 3 5 6 9 8 9 11 14 20 18 19 18 14 13 14 14 13 12 12 11 10 9 5 2 4 6 7 7 6 8 9 14 14 13 24 25 26 28 30
2 2 4 2 2 2 2 2 4 1 1 3 5 6 7 9 11 14 17 14 12 11 13 14 13 12 11 11 11 9 9 7 5 4 4 4 6 7 7 9 12 18 16 17 17 17 24 22 24
3 3 3 2 2 1 1 2 5 4 4 4 8 7 5 10 12 11 9 9 11 13 14 14 14 13 14 13 12 10 8 8 7 7 7 6 6 7 8 9 11 12 14 14 16 20 25 27 27
Wind_Direction
147 159 157 144 75 65 272 258 247 255 216 6 319 275 226 247 219 232 194 172 175 179 181 184 185 183 182 182 185 185 183 186 185 182 180 187 190 188 180 180 165 147 147 160 158 148 144 142 143
144 147 147 116 99 119 257 250 228 257 316 328 324 326 236 248 222 250 206 200 191 178 182 189 189 190 189 186 185 187 188 189 191 192 191 196 194 194 187 184 171 160 158 176 157 149 148 147 143
149 153 141 118 130 178 224 219 246 330 327 319 340 328 304 296 233 250 213 197 171 173 183 192 195 194 194 191 193 194 196 197 197 199 199 199 199 201 190 187 177 166 173 180 166 157 156 152 148
145 139 80 115 205 245 220 224 8 355 345 346 342 303 312 294 269 213 209 208 186 177 183 195 196 194 195 196 197 201 207 212 210 208 203 202 199 199 191 189 186 179 179 187 171 163 163 160 157
140 106 80 146 240 259 267 283 325 323 296 326 342 302 291 294 268 228 215 199 207 183 184 194 193 192 193 199 203 206 210 216 218 215 210 208 204 201 194 193 190 194 174 179 169 167 168 166 166
88 101 108 226 226 233 267 275 297 304 14 344 353 329 295 313 289 254 233 221 207 203 186 187 193 197 198 201 204 208 209 207 212 215 213 213 209 205 207 194 195 185 180 171 172 172 173 173 174
112 96 204 232 228 274 240 23 336 342 334 13 349 312 306 342 330 250 232 223 217 219 204 194 194 196 195 195 195 197 197 205 211 216 218 213 211 210 204 195 203 189 188 176 179 177 176 178 178
120 99 170 240 211 259 292 339 308 38 305 322 342 5 337 342 334 249 227 216 218 213 218 221 212 207 203 202 201 197 197 206 216 214 219 212 210 211 205 198 206 193 190 184 183 179 180 182 183
124 86 201 222 179 253 345 10 326 318 281 311 237 309 323 333 347 272 246 217 221 216 223 219 221 226 228 210 212 211 203 207 215 212 202 212 211 210 203 212 218 199 188 191 191 188 185 184 187
122 141 218 220 232 271 309 315 312 308 295 294 272 274 286 307 328 316 262 242 220 216 217 224 225 233 242 253 220 220 218 209 212 199 209 213 216 212 207 215 223 206 191 198 199 194 189 189 193
156 200 230 252 274 303 304 308 300 281 279 233 299 311 304 301 309 325 277 246 246 222 216 219 229 238 240 249 237 231 220 211 216 225 289 243 222 219 216 218 226 206 198 198 196 192 195 196 197
287 269 271 295 319 315 288 292 278 269 266 285 287 290 289 290 292 299 302 261 245 247 234 233 233 235 238 237 229 229 226 246 265 248 281 284 244 226 224 221 223 212 205 204 200 199 199 199 201
216 324 323 313 314 295 290 273 267 269 280 285 289 284 283 284 281 278 294 271 249 247 250 249 243 247 245 239 243 245 247 254 252 239 250 268 270 239 227 222 219 217 211 204 204 203 203 204 206
330 306 301 306 296 283 279 275 267 251 280 282 284 285 283 279 276 275 274 266 248 255 256 248 247 255 252 251 245 248 257 261 246 237 241 259 258 261 227 221 219 220 212 207 205 205 206 209 210
319 316 320 264 269 270 279 280 235 274 280 279 282 288 288 269 270 264 259 267 258 260 265 257 257 253 250 248 247 255 266 273 262 236 236 248 245 256 248 230 213 202 204 215 206 207 207 211 214
352 355 337 305 339 280 145 265 288 290 274 280 286 291 285 277 258 263 253 259 262 265 243 244 242 248 254 254 256 263 273 276 263 255 246 244 246 249 251 237 222 209 217 221 210 206 210 212 216
352 290 301 309 266 252 193 291 261 296 285 283 282 289 282 276 262 257 251 253 264 250 228 238 248 253 252 251 251 262 272 278 262 250 259 248 239 248 249 232 224 200 205 225 218 210 212 213 216
231 260 264 246 280 312 296 282 282 284 273 272 282 282 273 275 277 250 245 253 261 235 228 240 253 260 257 255 256 260 265 274 264 262 261 242 240 245 230 221 223 218 218 223 221 214 213 216 219
173 241 267 263 267 275 259 267 278 289 276 276 282 278 278 283 261 234 243 241 235 215 230 247 253 257 257 255 255 261 267 270 268 258 257 241 229 229 214 218 217 216 217 223 219 216 216 218 215
259 270 275 282 258 284 272 277 287 285 277 271 284 289 291 297 269 208 199 211 213 225 236 245 252 252 251 253 256 263 273 270 263 253 248 235 223 221 215 217 212 218 209 216 218 217 218 220 218
244 249 275 267 306 277 270 277 342 342 55 14 20 9 13 43 80 147 168 198 217 225 242 254 262 262 257 260 262 261 270 270 253 251 244 235 223 215 220 221 219 214 215 218 217 219 222 222 219
269 250 257 272 288 277 186 289 308 330 356 9 17 21 23 30 39 61 94 171 242 257 257 273 276 262 258 259 257 266 271 270 271 259 252 227 215 205 201 219 225 228 220 222 224 224 223 225 226
250 258 282 286 272 315 192 246 269 358 9 352 8 15 21 22 17 21 35 29 3 314 254 249 259 258 274 264 255 258 286 265 262 261 247 210 208 203 210 213 220 222 221 226 228 229 230 229 232
254 285 272 243 223 245 227 155 304 22 331 329 7 21 23 26 49 69 93 107 172 176 187 245 194 29 96 103 143 199 358 233 239 260 241 209 206 206 212 215 218 223 225 223 228 230 232 239 242
212 272 311 305 233 231 118 176 254 343 1 349 31 48 44 55 59 68 96 81 91 96 107 103 98 78 73 69 71 60 0 21 40 72 77 152 171 193 219 222 226 233 236 229 232 233 237 241 243
261 208 269 299 256 279 309 291 321 341 317 51 66 71 55 56 69 80 86 80 77 69 71 69 65 53 56 58 54 61 47 20 2 348 353 44 32 238 248 229 237 266 266 266 253 256 262 258 257
91 242 222 272 230 91 268 211 252 1 40 63 63 55 47 55 61 74 77 84 69 68 61 62 65 59 60 60 51 44 73 83 74 79 24 11 31 243 218 230 238 259 267 255 251 255 257 262 264
246 339 286 270 309 349 338 330 332 346 29 21 52 65 67 70 71 70 70 74 69 67 69 71 69 66 61 58 59 50 41 49 42 293 290 299 297 289 274 266 256 271 258 245 247 249 248 249 249
206 257 230 260 246 343 328 334 24 344 158 128 87 86 106 91 81 76 79 75 76 79 73 69 69 69 67 64 53 48 49 46 37 20 359 334 324 313 302 284 268 273 272 258 256 238 248 254 258
185 244 233 162 238 26 141 330 46 100 156 141 123 155 110 91 86 78 81 71 67 60 56 52 50 46 40 35 33 33 26 12 3 0 356 341 315 302 293 287 277 268 269 269 259 254 251 252 255
Height
1504 1506 1509 1510 1521 1525 1528 1518 1506 1506 1505 1505 1504 1503 1501 1499 1499 1507 1492 1492 1493 1494 1495 1498 1501 1505 1508 1510 1512 1514 1515 1516 1518 1519 1521 1522 1524 1526 1527 1528 1529 1530 1532 1533 1533 1534 1535 1536 1537
1504 1507 1510 1511 1527 1533 1528 1513 1509 1505 1504 1503 1500 1499 1498 1496 1495 1493 1492 1492 1493 1494 1496 1498 1500 1503 1506 1509 1512 1514 1515 1516 1518 1519 1521 1523 1524 1525 1527 1529 1530 1531 1532 1533 1534 1535 1536 1537 1538
1503 1507 1510 1515 1527 1531 1522 1507 1505 1506 1505 1502 1501 1499 1497 1496 1495 1493 1492 1492 1493 1495 1497 1499 1501 1504 1507 1509 1511 1513 1515 1516 1518 1519 1520 1523 1524 1524 1526 1529 1530 1532 1532 1533 1535 1536 1538 1538 1540
1504 1508 1514 1519 1521 1517 1512 1504 1505 1505 1504 1503 1503 1501 1498 1495 1495 1494 1493 1494 1494 1496 1498 1500 1502 1504 1507 1509 1510 1512 1514 1516 1517 1519 1520 1522 1524 1525 1526 1528 1530 1532 1533 1533 1535 1536 1538 1539 1540
1504 1507 1519 1521 1519 1512 1508 1504 1504 1505 1506 1505 1503 1501 1498 1495 1495 1494 1493 1494 1496 1495 1497 1500 1502 1504 1506 1509 1511 1512 1513 1514 1516 1517 1519 1521 1523 1525 1526 1527 1529 1531 1533 1533 1535 1536 1538 1539 1540
1505 1508 1519 1522 1516 1509 1506 1505 1506 1505 1505 1505 1504 1501 1498 1497 1495 1495 1495 1494 1496 1499 1498 1499 1501 1503 1504 1507 1509 1511 1511 1512 1513 1515 1517 1519 1521 1523 1526 1527 1528 1529 1530 1533 1535 1536 1538 1539 1541
1506 1512 1517 1516 1515 1510 1506 1504 1505 1505 1504 1503 1503 1501 1498 1495 1494 1494 1495 1495 1497 1499 1499 1498 1499 1500 1501 1502 1504 1507 1509 1510 1510 1512 1515 1517 1520 1523 1524 1526 1527 1529 1531 1532 1534 1536 1538 1539 1541
1506 1509 1514 1514 1514 1510 1503 1503 1504 1504 1503 1503 1503 1502 1499 1495 1491 1493 1494 1494 1495 1498 1499 1500 1500 1500 1501 1501 1503 1504 1506 1508 1509 1510 1512 1516 1518 1521 1523 1525 1526 1527 1529 1532 1534 1535 1537 1539 1540
1506 1515 1519 1511 1511 1507 1504 1505 1504 1504 1503 1502 1501 1501 1500 1497 1494 1494 1494 1493 1493 1494 1496 1498 1499 1499 1500 1502 1503 1505 1506 1507 1509 1509 1512 1514 1516 1519 1522 1524 1524 1526 1528 1531 1533 1535 1537 1538 1540
1506 1515 1511 1505 1505 1505 1505 1505 1503 1503 1501 1499 1498 1498 1498 1496 1495 1493 1493 1493 1492 1492 1493 1495 1496 1497 1498 1501 1503 1504 1506 1507 1509 1509 1511 1512 1515 1516 1520 1522 1524 1524 1528 1530 1532 1535 1537 1538 1539
1506 1510 1506 1503 1503 1504 1503 1502 1502 1500 1495 1495 1495 1495 1495 1493 1492 1491 1490 1492 1493 1491 1491 1492 1494 1496 1497 1498 1500 1503 1505 1506 1508 1509 1512 1513 1513 1515 1516 1519 1522 1524 1525 1527 1529 1532 1535 1537 1538
1508 1505 1505 1503 1503 1502 1501 1500 1497 1496 1493 1494 1493 1492 1491 1491 1490 1488 1487 1488 1490 1490 1490 1490 1492 1493 1495 1497 1498 1501 1501 1503 1507 1508 1509 1510 1512 1511 1513 1514 1517 1520 1522 1524 1527 1530 1533 1535 1537
1506 1506 1506 1504 1502 1500 1499 1497 1496 1488 1490 1490 1489 1489 1488 1488 1486 1485 1485 1483 1485 1487 1489 1489 1489 1491 1491 1493 1495 1496 1497 1499 1500 1503 1503 1504 1508 1509 1510 1511 1511 1514 1518 1520 1524 1527 1530 1532 1535
1508 1507 1505 1502 1499 1497 1496 1488 1492 1485 1487 1483 1483 1482 1482 1482 1482 1481 1481 1480 1481 1484 1485 1486 1486 1487 1487 1488 1489 1491 1492 1493 1493 1495 1498 1500 1501 1503 1503 1505 1506 1507 1512 1517 1519 1523 1526 1530 1532
1508 1507 1503 1500 1495 1493 1491 1482 1482 1481 1480 1477 1475 1474 1474 1474 1476 1476 1477 1477 1478 1479 1480 1481 1482 1483 1482 1483 1485 1486 1486 1486 1487 1488 1490 1491 1492 1495 1499 1499 1498 1503 1507 1516 1515 1519 1521 1526 1528
1510 1511 1512 1498 1494 1492 1493 1481 1481 1478 1477 1473 1471 1469 1466 1466 1468 1469 1471 1473 1473 1473 1474 1477 1478 1478 1478 1478 1479 1480 1478 1478 1479 1481 1482 1484 1483 1488 1491 1494 1497 1501 1506 1516 1513 1513 1518 1521 1523
1517 1523 1512 1502 1493 1494 1493 1483 1476 1475 1474 1470 1466 1462 1458 1457 1461 1463 1465 1467 1468 1469 1470 1474 1474 1475 1475 1475 1475 1474 1472 1473 1473 1475 1476 1476 1473 1479 1483 1488 1492 1492 1498 1508 1510 1511 1514 1516 1519
1527 1524 1509 1508 1495 1491 1492 1480 1469 1470 1469 1464 1461 1457 1453 1451 1451 1455 1459 1461 1462 1463 1466 1469 1470 1470 1471 1471 1471 1469 1468 1468 1468 1468 1467 1468 1468 1472 1476 1481 1487 1494 1499 1502 1509 1509 1508 1512 1515
1514 1516 1512 1499 1493 1494 1486 1477 1466 1461 1462 1460 1455 1452 1448 1445 1442 1447 1452 1455 1457 1459 1462 1465 1467 1466 1467 1466 1467 1465 1463 1463 1463 1463 1462 1461 1462 1464 1468 1475 1479 1488 1494 1502 1504 1503 1506 1509 1511
1513 1514 1502 1493 1486 1487 1478 1470 1463 1459 1456 1454 1451 1448 1445 1441 1440 1442 1446 1450 1453 1455 1459 1462 1463 1462 1462 1463 1462 1461 1459 1459 1458 1458 1460 1459 1460 1460 1464 1472 1475 1482 1486 1494 1498 1500 1502 1503 1505
1509 1506 1496 1497 1486 1479 1479 1467 1464 1456 1455 1453 1452 1449 1444 1440 1440 1442 1444 1448 1450 1452 1455 1456 1457 1457 1457 1458 1458 1456 1456 1454 1453 1452 1454 1455 1458 1458 1460 1466 1472 1477 1483 1487 1491 1494 1496 1498 1500
1500 1489 1487 1486 1482 1487 1476 1493 1465 1461 1457 1455 1453 1450 1448 1446 1445 1445 1445 1448 1450 1451 1451 1451 1452 1453 1453 1452 1452 1453 1451 1448 1446 1447 1445 1447 1452 1453 1455 1461 1468 1472 1477 1482 1485 1489 1492 1493 1495
1490 1485 1484 1480 1477 1477 1477 1484 1468 1461 1461 1460 1455 1453 1450 1449 1449 1449 1449 1449 1449 1450 1449 1450 1451 1451 1448 1447 1448 1449 1448 1440 1440 1442 1438 1438 1446 1449 1455 1459 1465 1469 1473 1476 1480 1483 1485 1488 1490
1484 1482 1477 1476 1475 1474 1478 1483 1476 1463 1464 1461 1458 1456 1454 1452 1451 1450 1450 1450 1450 1451 1449 1449 1450 1449 1445 1445 1443 1444 1442 1437 1437 1440 1440 1436 1441 1446 1451 1457 1460 1465 1469 1471 1476 1479 1481 1483 1486
1484 1483 1487 1480 1473 1473 1467 1471 1470 1465 1463 1462 1461 1460 1459 1455 1453 1452 1450 1450 1450 1448 1447 1449 1447 1448 1445 1445 1442 1443 1444 1439 1438 1441 1440 1437 1440 1445 1451 1454 1458 1462 1465 1468 1469 1472 1474 1477 1478
1477 1479 1475 1467 1468 1472 1464 1461 1463 1467 1465 1463 1463 1462 1461 1459 1456 1455 1453 1453 1451 1448 1446 1448 1447 1448 1447 1445 1447 1447 1445 1445 1444 1444 1443 1442 1444 1448 1450 1453 1456 1459 1461 1460 1463 1466 1467 1471 1473
1474 1473 1475 1468 1462 1474 1469 1465 1469 1468 1466 1465 1464 1463 1462 1461 1460 1458 1457 1454 1453 1451 1449 1450 1450 1449 1448 1449 1449 1447 1445 1447 1446 1446 1447 1448 1448 1447 1448 1451 1453 1456 1457 1458 1458 1460 1463 1465 1466
1476 1475 1471 1469 1459 1461 1461 1460 1460 1466 1469 1469 1466 1466 1466 1465 1463 1461 1458 1458 1457 1457 1458 1458 1456 1454 1454 1452 1451 1451 1450 1450 1449 1449 1450 1449 1448 1449 1448 1450 1451 1453 1454 1453 1454 1456 1457 1459 1461
1474 1474 1473 1469 1467 1460 1462 1465 1464 1468 1471 1471 1470 1469 1468 1467 1466 1465 1464 1464 1466 1466 1465 1462 1460 1457 1457 1454 1453 1453 1452 1452 1453 1452 1451 1449 1448 1447 1448 1449 1449 1450 1452 1451 1450 1450 1451 1454 1454
1467 1469 1470 1474 1465 1476 1468 1468 1468 1470 1472 1472 1472 1472 1472 1471 1470 1470 1469 1468 1468 1466 1464 1462 1460 1459 1457 1456 1455 1454 1453 1453 1451 1450 1448 1448 1447 1446 1445 1446 1447 1448 1448 1447 1448 1447 1448 1446 1446